owner,sensor,date,latitude,longitude,vertical_datum,wind_speed,wind_to_direction,wind_speed_of_gust,qcFlag 
TABS,ioos:station:wmo:42045:1,2015-02-01T00:00:00Z,26.2168,-96.4998,4.0,4.556424036,159.5766715,5.79,'11111222,11111222,11111222' 
TABS,ioos:station:wmo:42045:1,2015-02-01T00:30:00Z,26.2168,-96.4998,4.0,3.721464765,167.27104,4.35,'11111222,11111222,11111222' 
TABS,ioos:station:wmo:42045:1,2015-02-01T01:00:00Z,26.2168,-96.4998,4.0,3.026962174,173.931773,3.48,'11111222,11111222,11111222' 
TABS,ioos:station:wmo:42045:1,2015-02-01T01:30:00Z,26.2168,-96.4998,4.0,2.42,180.0002105,2.93,'11111222,11111222,11111222' 
TABS,ioos:station:wmo:42045:1,2015-02-01T02:00:00Z,26.2168,-96.4998,4.0,2.062425756,177.2210501,2.34,'11111222,11111222,11111222' 
TABS,ioos:station:wmo:42045:1,2015-02-01T02:30:00Z,26.2168,-96.4998,4.0,1.80446668,165.8869896,2.16,'11111222,11111222,11111222' 
TABS,ioos:station:wmo:42045:1,2015-02-01T03:00:00Z,26.2168,-96.4998,4.0,1.740402252,159.4827443,2.04,'11111222,11111222,11111222' 
TABS,ioos:station:wmo:42045:1,2015-02-01T03:30:00Z,26.2168,-96.4998,4.0,1.423376268,162.8383318,1.7,'11111222,11111222,11111222' 
TABS,ioos:station:wmo:42045:1,2015-02-01T04:00:00Z,26.2168,-96.4998,4.0,1.261269202,207.3778492,1.59,'11111222,11111222,11111222' 
TABS,ioos:station:wmo:42045:1,2015-02-01T04:30:00Z,26.2168,-96.4998,4.0,1.527416119,134.4698156,1.92,'11111222,11111222,11111222' 
TABS,ioos:station:wmo:42045:1,2015-02-01T05:00:00Z,26.2168,-96.4998,4.0,2.121744565,146.5349094,2.6,'11111222,11111222,11111222' 
TABS,ioos:station:wmo:42045:1,2015-02-01T05:30:00Z,26.2168,-96.4998,4.0,1.648787433,185.918257,1.91,'11111222,11111222,11111222' 
TABS,ioos:station:wmo:42045:1,2015-02-01T06:00:00Z,26.2168,-96.4998,4.0,2.26,187.6283423,3.26,'11111222,11111222,11111222' 
TABS,ioos:station:wmo:42045:1,2015-02-01T06:30:00Z,26.2168,-96.4998,4.0,3.570224083,147.4675521,4.12,'11111222,11111222,11111222' 
TABS,ioos:station:wmo:42045:1,2015-02-01T07:00:00Z,26.2168,-96.4998,4.0,4.223079445,157.4430166,4.77,'11111222,11111222,11111222' 
TABS,ioos:station:wmo:42045:1,2015-02-01T07:30:00Z,26.2168,-96.4998,4.0,5.509128788,170.9140626,6.14,'11111222,11111222,11111222' 
TABS,ioos:station:wmo:42045:1,2015-02-01T08:00:00Z,26.2168,-96.4998,4.0,5.555582778,156.8964672,6.14,'11111222,11111222,11111222' 
TABS,ioos:station:wmo:42045:1,2015-02-01T08:30:00Z,26.2168,-96.4998,4.0,6.418917354,154.6328653,7.19,'11111222,11111222,11111222' 
TABS,ioos:station:wmo:42045:1,2015-02-01T09:00:00Z,26.2168,-96.4998,4.0,6.090361237,155.4550976,6.85,'11111222,11111222,11111222' 
TABS,ioos:station:wmo:42045:1,2015-02-01T09:30:00Z,26.2168,-96.4998,4.0,5.897134898,170.1385884,6.8,'11111222,11111222,11111222' 
TABS,ioos:station:wmo:42045:1,2015-02-01T10:00:00Z,26.2168,-96.4998,4.0,5.619688603,169.750103,6.46,'11111222,11111222,11111222' 
TABS,ioos:station:wmo:42045:1,2015-02-01T10:30:00Z,26.2168,-96.4998,4.0,6.42284205,166.6779947,7.16,'11111222,11111222,11111222' 
TABS,ioos:station:wmo:42045:1,2015-02-01T11:00:00Z,26.2168,-96.4998,4.0,6.597491948,170.1381466,7.29,'11111222,11111222,11111222' 
TABS,ioos:station:wmo:42045:1,2015-02-01T11:30:00Z,26.2168,-96.4998,4.0,6.921228215,167.2289978,8.23,'11111222,11111222,11111222' 
TABS,ioos:station:wmo:42045:1,2015-02-01T12:00:00Z,26.2168,-96.4998,4.0,7.004241572,172.8650646,7.74,'11111222,11111222,11111222' 
TABS,ioos:station:wmo:42045:1,2015-02-01T12:30:00Z,26.2168,-96.4998,4.0,4.996038431,184.5924117,6.18,'11111222,11111222,11111222' 
TABS,ioos:station:wmo:42045:1,2015-02-01T13:00:00Z,26.2168,-96.4998,4.0,3.107297861,188.886542,3.68,'11111222,11111222,11111222' 
TABS,ioos:station:wmo:42045:1,2015-02-01T13:30:00Z,26.2168,-96.4998,4.0,3.455227923,176.8479824,4.24,'11111222,11111222,11111222' 
TABS,ioos:station:wmo:42045:1,2015-02-01T14:00:00Z,26.2168,-96.4998,4.0,4.901020302,178.8310739,5.38,'11111222,11111222,11111222' 
TABS,ioos:station:wmo:42045:1,2015-02-01T14:30:00Z,26.2168,-96.4998,4.0,5.178725712,175.1263254,5.96,'11111222,11111222,11111222' 
TABS,ioos:station:wmo:42045:1,2015-02-01T15:00:00Z,26.2168,-96.4998,4.0,5.27299725,175.9765361,6.08,'11111222,11111222,11111222' 
TABS,ioos:station:wmo:42045:1,2015-02-01T15:30:00Z,26.2168,-96.4998,4.0,4.165813246,176.9729724,4.87,'11111222,11111222,11111222' 
TABS,ioos:station:wmo:42045:1,2015-02-01T16:00:00Z,26.2168,-96.4998,4.0,3.541412148,181.6183012,4.48,'11111222,11111222,11111222' 
TABS,ioos:station:wmo:42045:1,2015-02-01T16:30:00Z,26.2168,-96.4998,4.0,1.4611297,277.0763616,2.03,'11111222,11111222,11111222' 
TABS,ioos:station:wmo:42045:1,2015-02-01T17:00:00Z,26.2168,-96.4998,4.0,1.236486959,341.1252839,2.08,'11111222,11111222,11111222' 
TABS,ioos:station:wmo:42045:1,2015-02-01T17:30:00Z,26.2168,-96.4998,4.0,0.720069441,359.2040678,1.11,'11111222,11144222,11111222' 
TABS,ioos:station:wmo:42045:1,2015-02-01T18:00:00Z,26.2168,-96.4998,4.0,0.43324358,18.85290422,0.83,'11111222,11111222,11111222' 
TABS,ioos:station:wmo:42045:1,2015-02-01T18:30:00Z,26.2168,-96.4998,4.0,0.411946598,95.57260569,0.86,'11111222,11111222,11111222' 
TABS,ioos:station:wmo:42045:1,2015-02-01T19:00:00Z,26.2168,-96.4998,4.0,0.264007576,24.62329675,0.65,'11111222,11111222,11111222' 
TABS,ioos:station:wmo:42045:1,2015-02-01T19:30:00Z,26.2168,-96.4998,4.0,0.340147027,204.3047029,0.98,'11111222,11111222,11111222' 
TABS,ioos:station:wmo:42045:1,2015-02-01T20:00:00Z,26.2168,-96.4998,4.0,1.525549081,212.9610213,1.82,'11111222,11111222,11111222' 
TABS,ioos:station:wmo:42045:1,2015-02-01T20:30:00Z,26.2168,-96.4998,4.0,1.769124077,167.9281013,2.09,'11111222,11111222,11111222' 
TABS,ioos:station:wmo:42045:1,2015-02-01T21:00:00Z,26.2168,-96.4998,4.0,1.264634335,202.3063634,1.55,'11111222,11111222,11111222' 
TABS,ioos:station:wmo:42045:1,2015-02-01T21:30:00Z,26.2168,-96.4998,4.0,0.378021163,322.5236976,1.2,'11111222,11111222,11111222' 
TABS,ioos:station:wmo:42045:1,2015-02-01T22:00:00Z,26.2168,-96.4998,4.0,1.002247474,347.9050607,1.76,'11111222,11111222,11111222' 
TABS,ioos:station:wmo:42045:1,2015-02-01T22:30:00Z,26.2168,-96.4998,4.0,1.601530518,357.4947025,1.92,'11111222,11111222,11111222' 
TABS,ioos:station:wmo:42045:1,2015-02-01T23:00:00Z,26.2168,-96.4998,4.0,1.518222645,17.24120862,1.81,'11111222,11111222,11111222' 
TABS,ioos:station:wmo:42045:1,2015-02-01T23:30:00Z,26.2168,-96.4998,4.0,1.673349934,17.02695706,2.05,'11111222,11111222,11111222' 
TABS,ioos:station:wmo:42045:1,2015-02-02T00:00:00Z,26.2168,-96.4998,4.0,1.363121418,100.5684104,1.69,'11111222,11111222,11111222' 
TABS,ioos:station:wmo:42045:1,2015-02-02T00:30:00Z,26.2168,-96.4998,4.0,1.504426801,102.2813466,1.88,'11111222,11111222,11111222' 
TABS,ioos:station:wmo:42045:1,2015-02-02T01:00:00Z,26.2168,-96.4998,4.0,1.140175425,68.38485068,1.55,'11111222,11111222,11111222' 
TABS,ioos:station:wmo:42045:1,2015-02-02T01:30:00Z,26.2168,-96.4998,4.0,1.40064271,56.64995651,2.0,'11111222,11111222,11111222' 
TABS,ioos:station:wmo:42045:1,2015-02-02T02:00:00Z,26.2168,-96.4998,4.0,0.56639209,42.13728578,0.84,'11111222,11111222,11111222' 
TABS,ioos:station:wmo:42045:1,2015-02-02T02:30:00Z,26.2168,-96.4998,4.0,1.749428478,351.4528495,2.55,'11111222,11111222,11111222' 
TABS,ioos:station:wmo:42045:1,2015-02-02T03:00:00Z,26.2168,-96.4998,4.0,1.073359213,33.98587718,1.4,'11111222,11111222,11111222' 
TABS,ioos:station:wmo:42045:1,2015-02-02T03:30:00Z,26.2168,-96.4998,4.0,1.110180166,29.10445311,1.33,'11111222,11111222,11111222' 
TABS,ioos:station:wmo:42045:1,2015-02-02T04:00:00Z,26.2168,-96.4998,4.0,1.634166454,46.73538484,2.07,'11111222,11111222,11111222' 
TABS,ioos:station:wmo:42045:1,2015-02-02T04:30:00Z,26.2168,-96.4998,4.0,2.063904068,57.46458801,2.32,'11111222,11111222,11111222' 
TABS,ioos:station:wmo:42045:1,2015-02-02T05:00:00Z,26.2168,-96.4998,4.0,2.252043516,36.51341593,2.65,'11111222,11111222,11111222' 
TABS,ioos:station:wmo:42045:1,2015-02-02T05:30:00Z,26.2168,-96.4998,4.0,2.5569122,8.320012602,3.12,'11111222,11111222,11111222' 
TABS,ioos:station:wmo:42045:1,2015-02-02T06:00:00Z,26.2168,-96.4998,4.0,1.751142484,31.69295765,2.25,'11111222,11111222,11111222' 
TABS,ioos:station:wmo:42045:1,2015-02-02T06:30:00Z,26.2168,-96.4998,4.0,2.514617267,41.61430958,3.02,'11111222,11111222,11111222' 
TABS,ioos:station:wmo:42045:1,2015-02-02T07:00:00Z,26.2168,-96.4998,4.0,9.012352634,25.71180471,10.77,'11111222,11111222,11111222' 
TABS,ioos:station:wmo:42045:1,2015-02-02T07:30:00Z,26.2168,-96.4998,4.0,7.630006553,36.79450842,10.52,'11111222,11111222,11111222' 
TABS,ioos:station:wmo:42045:1,2015-02-02T08:00:00Z,26.2168,-96.4998,4.0,10.6310959,48.88979962,14.96,'11111222,11111222,11111222' 
TABS,ioos:station:wmo:42045:1,2015-02-02T08:30:00Z,26.2168,-96.4998,4.0,7.497366204,57.03025228,11.57,'11111222,11111222,11111222' 
TABS,ioos:station:wmo:42045:1,2015-02-02T09:00:00Z,26.2168,-96.4998,4.0,7.6931463,51.49106742,14.59,'11111222,11111222,11111222' 
TABS,ioos:station:wmo:42045:1,2015-02-02T09:30:00Z,26.2168,-96.4998,4.0,7.13349844,56.08682457,11.61,'11111222,11111222,11111222' 
TABS,ioos:station:wmo:42045:1,2015-02-02T10:00:00Z,26.2168,-96.4998,4.0,9.351834045,69.85948795,15.4,'11111222,11111222,11111222' 
TABS,ioos:station:wmo:42045:1,2015-02-02T10:30:00Z,26.2168,-96.4998,4.0,7.002578097,66.87624801,12.18,'11111222,11111222,11111222' 
TABS,ioos:station:wmo:42045:1,2015-02-02T11:00:00Z,26.2168,-96.4998,4.0,6.86705905,64.92729835,12.18,'11111222,11111222,11111222' 
TABS,ioos:station:wmo:42045:1,2015-02-02T11:30:00Z,26.2168,-96.4998,4.0,6.398788948,66.31898535,10.65,'11111222,11111222,11111222' 
TABS,ioos:station:wmo:42045:1,2015-02-02T12:00:00Z,26.2168,-96.4998,4.0,6.443795465,68.61100627,11.66,'11111222,11111222,11111222' 
TABS,ioos:station:wmo:42045:1,2015-02-02T12:30:00Z,26.2168,-96.4998,4.0,7.567113056,75.92664046,12.23,'11111222,11111222,11111222' 
TABS,ioos:station:wmo:42045:1,2015-02-02T13:00:00Z,26.2168,-96.4998,4.0,7.37143134,73.28548418,11.66,'11111222,11111222,11111222' 
TABS,ioos:station:wmo:42045:1,2015-02-02T13:30:00Z,26.2168,-96.4998,4.0,7.441485067,72.31948096,11.91,'11111222,11111222,11111222' 
TABS,ioos:station:wmo:42045:1,2015-02-02T14:00:00Z,26.2168,-96.4998,4.0,7.883577868,76.9505188,11.58,'11111222,11111222,11111222' 
TABS,ioos:station:wmo:42045:1,2015-02-02T14:30:00Z,26.2168,-96.4998,4.0,8.56028621,81.67071766,12.8,'11111222,11111222,11111222' 
TABS,ioos:station:wmo:42045:1,2015-02-02T15:00:00Z,26.2168,-96.4998,4.0,8.590977826,85.99475021,12.86,'11111222,11111222,11111222' 
TABS,ioos:station:wmo:42045:1,2015-02-02T15:30:00Z,26.2168,-96.4998,4.0,8.525502918,76.50126339,11.92,'11111222,11111222,11111222' 
TABS,ioos:station:wmo:42045:1,2015-02-02T16:00:00Z,26.2168,-96.4998,4.0,8.394438635,77.96682242,12.22,'11111222,11111222,11111222' 
TABS,ioos:station:wmo:42045:1,2015-02-02T16:30:00Z,26.2168,-96.4998,4.0,7.412853702,60.94504293,11.33,'11111222,11111222,11111222' 
TABS,ioos:station:wmo:42045:1,2015-02-02T17:00:00Z,26.2168,-96.4998,4.0,7.523629443,61.15215254,10.95,'11111222,11111222,11111222' 
TABS,ioos:station:wmo:42045:1,2015-02-02T17:30:00Z,26.2168,-96.4998,4.0,7.174900696,54.75904276,10.47,'11111222,11111222,11111222' 
TABS,ioos:station:wmo:42045:1,2015-02-02T18:00:00Z,26.2168,-96.4998,4.0,7.430915152,48.43657204,10.73,'11111222,11111222,11111222' 
TABS,ioos:station:wmo:42045:1,2015-02-02T18:30:00Z,26.2168,-96.4998,4.0,7.34711508,52.13152364,11.35,'11111222,11111222,11111222' 
TABS,ioos:station:wmo:42045:1,2015-02-02T19:00:00Z,26.2168,-96.4998,4.0,7.069943423,42.64953029,9.99,'11111222,11111222,11111222' 
TABS,ioos:station:wmo:42045:1,2015-02-02T19:30:00Z,26.2168,-96.4998,4.0,7.156269978,45.56582839,9.94,'11111222,11111222,11111222' 
TABS,ioos:station:wmo:42045:1,2015-02-02T20:00:00Z,26.2168,-96.4998,4.0,7.183655059,49.34647333,10.95,'11111222,11111222,11111222' 
TABS,ioos:station:wmo:42045:1,2015-02-02T20:30:00Z,26.2168,-96.4998,4.0,6.741290678,40.18614467,10.09,'11111222,11111222,11111222' 
TABS,ioos:station:wmo:42045:1,2015-02-02T21:00:00Z,26.2168,-96.4998,4.0,6.712801204,29.54345332,9.87,'11111222,11111222,11111222' 
TABS,ioos:station:wmo:42045:1,2015-02-02T21:30:00Z,26.2168,-96.4998,4.0,6.443795465,31.74119484,8.73,'11111222,11111222,11111222' 
TABS,ioos:station:wmo:42045:1,2015-02-02T22:00:00Z,26.2168,-96.4998,4.0,6.672825489,28.75408926,9.43,'11111222,11111222,11111222' 
TABS,ioos:station:wmo:42045:1,2015-02-02T22:30:00Z,26.2168,-96.4998,4.0,6.666513332,22.02458397,9.55,'11111222,11111222,11111222' 
TABS,ioos:station:wmo:42045:1,2015-02-02T23:00:00Z,26.2168,-96.4998,4.0,6.343532139,18.377571,8.29,'11111222,11111222,11111222' 
TABS,ioos:station:wmo:42045:1,2015-02-02T23:30:00Z,26.2168,-96.4998,4.0,6.286215077,16.73391512,8.64,'11111222,11111222,11111222' 
TABS,ioos:station:wmo:42045:1,2015-02-03T00:00:00Z,26.2168,-96.4998,4.0,6.602317775,22.71973369,9.45,'11111222,11111222,11111222' 
TABS,ioos:station:wmo:42045:1,2015-02-03T00:30:00Z,26.2168,-96.4998,4.0,6.284854811,29.86898477,8.77,'11111222,11111222,11111222' 
TABS,ioos:station:wmo:42045:1,2015-02-03T01:00:00Z,26.2168,-96.4998,4.0,6.141376067,31.07547283,8.59,'11111222,11111222,11111222' 
TABS,ioos:station:wmo:42045:1,2015-02-03T01:30:00Z,26.2168,-96.4998,4.0,6.478556938,42.0592136,9.39,'11111222,11111222,11111222' 
TABS,ioos:station:wmo:42045:1,2015-02-03T02:00:00Z,26.2168,-96.4998,4.0,6.091338112,32.80275811,8.66,'11111222,11111222,11111222' 
TABS,ioos:station:wmo:42045:1,2015-02-03T02:30:00Z,26.2168,-96.4998,4.0,5.896778782,33.09690001,9.1,'11111222,11111222,11111222' 
TABS,ioos:station:wmo:42045:1,2015-02-03T03:00:00Z,26.2168,-96.4998,4.0,6.478556938,42.0592136,8.85,'11111222,11111222,11111222' 
TABS,ioos:station:wmo:42045:1,2015-02-03T03:30:00Z,26.2168,-96.4998,4.0,5.858754134,37.78891276,8.37,'11111222,11111222,11111222' 
TABS,ioos:station:wmo:42045:1,2015-02-03T04:00:00Z,26.2168,-96.4998,4.0,5.951848452,38.93012244,8.21,'11111222,11111222,11111222' 
TABS,ioos:station:wmo:42045:1,2015-02-03T04:30:00Z,26.2168,-96.4998,4.0,5.904040989,37.08310002,8.08,'11111222,11111222,11111222' 
TABS,ioos:station:wmo:42045:1,2015-02-03T05:00:00Z,26.2168,-96.4998,4.0,6.696894803,50.93901204,8.58,'11111222,11111222,11111222' 
TABS,ioos:station:wmo:42045:1,2015-02-03T05:30:00Z,26.2168,-96.4998,4.0,6.358624065,43.66154217,8.35,'11111222,11111222,11111222' 
TABS,ioos:station:wmo:42045:1,2015-02-03T06:00:00Z,26.2168,-96.4998,4.0,6.143850584,48.76111299,8.39,'11111222,11111222,11111222' 
TABS,ioos:station:wmo:42045:1,2015-02-03T06:30:00Z,26.2168,-96.4998,4.0,6.171628634,61.23359268,7.63,'11111222,11111222,11111222' 
TABS,ioos:station:wmo:42045:1,2015-02-03T07:00:00Z,26.2168,-96.4998,4.0,5.828078586,55.27341844,7.72,'11111222,11111222,11111222' 
TABS,ioos:station:wmo:42045:1,2015-02-03T07:30:00Z,26.2168,-96.4998,4.0,5.86804908,37.10393768,8.06,'11111222,11111222,11111222' 
TABS,ioos:station:wmo:42045:1,2015-02-03T08:00:00Z,26.2168,-96.4998,4.0,6.17525708,40.00722109,7.77,'11111222,11111222,11111222' 
TABS,ioos:station:wmo:42045:1,2015-02-03T08:30:00Z,26.2168,-96.4998,4.0,5.861637996,49.84367336,7.83,'11111222,11111222,11111222' 
TABS,ioos:station:wmo:42045:1,2015-02-03T09:00:00Z,26.2168,-96.4998,4.0,5.791485129,55.62361204,7.96,'11111222,11111222,11111222' 
TABS,ioos:station:wmo:42045:1,2015-02-03T09:30:00Z,26.2168,-96.4998,4.0,6.338596059,58.94288263,8.56,'11111222,11111222,11111222' 
TABS,ioos:station:wmo:42045:1,2015-02-03T10:00:00Z,26.2168,-96.4998,4.0,5.874904255,55.47104539,7.48,'11111222,11111222,11111222' 
TABS,ioos:station:wmo:42045:1,2015-02-03T10:30:00Z,26.2168,-96.4998,4.0,6.409906396,56.9045908,8.01,'11111222,11111222,11111222' 
TABS,ioos:station:wmo:42045:1,2015-02-03T11:00:00Z,26.2168,-96.4998,4.0,6.411310318,54.97103476,8.74,'11111222,11111222,11111222' 
TABS,ioos:station:wmo:42045:1,2015-02-03T11:30:00Z,26.2168,-96.4998,4.0,6.479668201,61.41741425,8.59,'11111222,11111222,11111222' 
TABS,ioos:station:wmo:42045:1,2015-02-03T12:00:00Z,26.2168,-96.4998,4.0,7.190716237,66.21513261,8.88,'11111222,11111222,11111222' 
TABS,ioos:station:wmo:42045:1,2015-02-03T12:30:00Z,26.2168,-96.4998,4.0,8.048384931,72.12748086,9.66,'11111222,11111222,11111222' 
TABS,ioos:station:wmo:42045:1,2015-02-03T13:00:00Z,26.2168,-96.4998,4.0,7.946722595,78.97247256,10.22,'11111222,11111222,11111222' 
TABS,ioos:station:wmo:42045:1,2015-02-03T13:30:00Z,26.2168,-96.4998,4.0,7.181782509,69.79840701,9.37,'11111222,11111222,11111222' 
TABS,ioos:station:wmo:42045:1,2015-02-03T14:00:00Z,26.2168,-96.4998,4.0,7.49170875,77.35466661,9.57,'11111222,11111222,11111222' 
TABS,ioos:station:wmo:42045:1,2015-02-03T14:30:00Z,26.2168,-96.4998,4.0,7.661233582,85.73280888,9.34,'11111222,11111222,11111222' 
TABS,ioos:station:wmo:42045:1,2015-02-03T15:00:00Z,26.2168,-96.4998,4.0,7.402438787,88.52879781,9.86,'11111222,11111222,11111222' 
TABS,ioos:station:wmo:42045:1,2015-02-03T15:30:00Z,26.2168,-96.4998,4.0,7.480989239,94.29338291,9.44,'11111222,11111222,11111222' 
TABS,ioos:station:wmo:42045:1,2015-02-03T16:00:00Z,26.2168,-96.4998,4.0,7.176747174,93.91538739,8.83,'11111222,11111222,11111222' 
TABS,ioos:station:wmo:42045:1,2015-02-03T16:30:00Z,26.2168,-96.4998,4.0,6.943947004,96.44994054,8.83,'11111222,11111222,11111222' 
TABS,ioos:station:wmo:42045:1,2015-02-03T17:00:00Z,26.2168,-96.4998,4.0,7.756913046,121.1287837,9.84,'11111222,11111222,11111222' 
TABS,ioos:station:wmo:42045:1,2015-02-03T17:30:00Z,26.2168,-96.4998,4.0,8.038631724,112.9930606,9.84,'11111222,11111222,11111222' 
TABS,ioos:station:wmo:42045:1,2015-02-03T18:00:00Z,26.2168,-96.4998,4.0,6.855982789,111.4758868,8.21,'11111222,11111222,11111222' 
TABS,ioos:station:wmo:42045:1,2015-02-03T18:30:00Z,26.2168,-96.4998,4.0,5.953990259,97.72222866,7.18,'11111222,11111222,11111222' 
TABS,ioos:station:wmo:42045:1,2015-02-03T19:00:00Z,26.2168,-96.4998,4.0,6.777846266,101.5755827,12.19,'11111222,11111222,11111222' 
TABS,ioos:station:wmo:42045:1,2015-02-03T19:30:00Z,26.2168,-96.4998,4.0,6.559519799,80.52291919,7.99,'11111222,11111222,11111222' 
TABS,ioos:station:wmo:42045:1,2015-02-03T20:00:00Z,26.2168,-96.4998,4.0,6.113926725,58.98767984,7.77,'11111222,11111222,11111222' 
TABS,ioos:station:wmo:42045:1,2015-02-03T20:30:00Z,26.2168,-96.4998,4.0,6.767717488,67.22347104,8.67,'11111222,11111222,11111222' 
TABS,ioos:station:wmo:42045:1,2015-02-03T21:00:00Z,26.2168,-96.4998,4.0,7.500613308,74.85169077,9.42,'11111222,11111222,11111222' 
TABS,ioos:station:wmo:42045:1,2015-02-03T21:30:00Z,26.2168,-96.4998,4.0,7.904138157,77.95041543,9.75,'11111222,11111222,11111222' 
TABS,ioos:station:wmo:42045:1,2015-02-03T22:00:00Z,26.2168,-96.4998,4.0,7.456004292,73.80088839,9.6,'11111222,11111222,11111222' 
TABS,ioos:station:wmo:42045:1,2015-02-03T22:30:00Z,26.2168,-96.4998,4.0,7.93614516,75.40303769,9.53,'11111222,11111222,11111222' 
TABS,ioos:station:wmo:42045:1,2015-02-03T23:00:00Z,26.2168,-96.4998,4.0,6.966498403,50.29940447,8.92,'11111222,11111222,11111222' 
TABS,ioos:station:wmo:42045:1,2015-02-03T23:30:00Z,26.2168,-96.4998,4.0,7.448274968,52.6374434,9.26,'11111222,11111222,11111222' 
TABS,ioos:station:wmo:42045:1,2015-02-04T00:00:00Z,26.2168,-96.4998,4.0,7.708002335,53.17436727,9.63,'11111222,11111222,11111222' 
TABS,ioos:station:wmo:42045:1,2015-02-04T00:30:00Z,26.2168,-96.4998,4.0,6.861399274,43.46429238,9.16,'11111222,11111222,11111222' 
TABS,ioos:station:wmo:42045:1,2015-02-04T01:00:00Z,26.2168,-96.4998,4.0,7.243051843,39.73436967,9.65,'11111222,11111222,11111222' 
TABS,ioos:station:wmo:42045:1,2015-02-04T01:30:00Z,26.2168,-96.4998,4.0,7.486641437,52.37974728,10.12,'11111222,11111222,11111222' 
TABS,ioos:station:wmo:42045:1,2015-02-04T02:00:00Z,26.2168,-96.4998,4.0,6.696603617,44.45518031,8.97,'11111222,11111222,11111222' 
TABS,ioos:station:wmo:42045:1,2015-02-04T02:30:00Z,26.2168,-96.4998,4.0,6.756130549,53.48595269,9.17,'11111222,11111222,11111222' 
TABS,ioos:station:wmo:42045:1,2015-02-04T03:00:00Z,26.2168,-96.4998,4.0,7.638042943,65.3135624,9.74,'11111222,11111222,11111222' 
TABS,ioos:station:wmo:42045:1,2015-02-04T03:30:00Z,26.2168,-96.4998,4.0,6.811086551,63.58507069,9.16,'11111222,11111222,11111222' 
TABS,ioos:station:wmo:42045:1,2015-02-04T04:00:00Z,26.2168,-96.4998,4.0,8.67097457,71.64825558,10.49,'11111222,11111222,11111222' 
TABS,ioos:station:wmo:42045:1,2015-02-04T04:30:00Z,26.2168,-96.4998,4.0,9.875059493,64.05734426,13.86,'11111222,11111222,11111222' 
TABS,ioos:station:wmo:42045:1,2015-02-04T05:00:00Z,26.2168,-96.4998,4.0,10.00148489,56.70680836,13.33,'11111222,11111222,11111222' 
TABS,ioos:station:wmo:42045:1,2015-02-04T05:30:00Z,26.2168,-96.4998,4.0,6.965658619,40.45824112,9.12,'11111222,11111222,11111222' 
TABS,ioos:station:wmo:42045:1,2015-02-04T06:00:00Z,26.2168,-96.4998,4.0,7.048545949,25.91041516,9.8,'11111222,11111222,11111222' 
TABS,ioos:station:wmo:42045:1,2015-02-04T06:30:00Z,26.2168,-96.4998,4.0,5.964830257,357.6938282,8.36,'11111222,11111222,11111222' 
TABS,ioos:station:wmo:42045:1,2015-02-04T07:00:00Z,26.2168,-96.4998,4.0,7.270660218,24.8023917,9.83,'11111222,11111222,11111222' 
TABS,ioos:station:wmo:42045:1,2015-02-04T07:30:00Z,26.2168,-96.4998,4.0,8.779504542,32.67612224,13.2,'11111222,11111222,11111222' 
TABS,ioos:station:wmo:42045:1,2015-02-04T08:00:00Z,26.2168,-96.4998,4.0,7.868977062,52.2268607,10.79,'11111222,11111222,11111222' 
TABS,ioos:station:wmo:42045:1,2015-02-04T08:30:00Z,26.2168,-96.4998,4.0,7.805895208,51.86717721,11.09,'11111222,11111222,11111222' 
TABS,ioos:station:wmo:42045:1,2015-02-04T09:00:00Z,26.2168,-96.4998,4.0,7.148881031,32.48934673,9.75,'11111222,11111222,11111222' 
TABS,ioos:station:wmo:42045:1,2015-02-04T09:30:00Z,26.2168,-96.4998,4.0,7.12264698,37.64186282,10.76,'11111222,11111222,11111222' 
TABS,ioos:station:wmo:42045:1,2015-02-04T10:00:00Z,26.2168,-96.4998,4.0,7.058285911,21.87651718,9.83,'11111222,11111222,11111222' 
TABS,ioos:station:wmo:42045:1,2015-02-04T10:30:00Z,26.2168,-96.4998,4.0,6.674076715,37.14431577,9.86,'11111222,11111222,11111222' 
TABS,ioos:station:wmo:42045:1,2015-02-04T11:00:00Z,26.2168,-96.4998,4.0,7.375289825,45.38421307,9.78,'11111222,11111222,11111222' 
TABS,ioos:station:wmo:42045:1,2015-02-04T11:30:00Z,26.2168,-96.4998,4.0,5.936741531,23.84463281,7.79,'11111222,11111222,11111222' 
TABS,ioos:station:wmo:42045:1,2015-02-04T12:00:00Z,26.2168,-96.4998,4.0,5.44501607,13.7042251,7.47,'11111222,11111222,11111222' 
TABS,ioos:station:wmo:42045:1,2015-02-04T12:30:00Z,26.2168,-96.4998,4.0,4.25960092,16.22229359,5.92,'11111222,11111222,11111222' 
TABS,ioos:station:wmo:42045:1,2015-02-04T13:00:00Z,26.2168,-96.4998,4.0,7.910815381,290.4966586,9.74,'11111222,11111222,11111222' 
TABS,ioos:station:wmo:42045:1,2015-02-04T13:30:00Z,26.2168,-96.4998,4.0,7.222741862,304.3940473,9.87,'11111222,11111222,11111222' 
TABS,ioos:station:wmo:42045:1,2015-02-04T14:00:00Z,26.2168,-96.4998,4.0,7.108431613,299.7748042,9.06,'11111222,11111222,11111222' 
TABS,ioos:station:wmo:42045:1,2015-02-04T14:30:00Z,26.2168,-96.4998,4.0,7.638429158,296.4308075,9.77,'11111222,11111222,11111222' 
TABS,ioos:station:wmo:42045:1,2015-02-04T15:00:00Z,26.2168,-96.4998,4.0,7.422162758,304.182428,10.13,'11111222,11111222,11111222' 
TABS,ioos:station:wmo:42045:1,2015-02-04T15:30:00Z,26.2168,-96.4998,4.0,6.411123147,311.5221164,8.42,'11111222,11111222,11111222' 
TABS,ioos:station:wmo:42045:1,2015-02-04T16:00:00Z,26.2168,-96.4998,4.0,6.195562928,313.8227526,8.21,'11111222,11111222,11111222' 
TABS,ioos:station:wmo:42045:1,2015-02-04T16:30:00Z,26.2168,-96.4998,4.0,6.022001328,317.2205874,7.85,'11111222,11111222,11111222' 
TABS,ioos:station:wmo:42045:1,2015-02-04T17:00:00Z,26.2168,-96.4998,4.0,6.333442982,312.7604241,8.16,'11111222,11111222,11111222' 
TABS,ioos:station:wmo:42045:1,2015-02-04T17:30:00Z,26.2168,-96.4998,4.0,7.397107543,296.1493085,9.44,'11111222,11111222,11111222' 
TABS,ioos:station:wmo:42045:1,2015-02-04T18:00:00Z,26.2168,-96.4998,4.0,7.244984472,300.0685125,9.33,'11111222,11111222,11111222' 
TABS,ioos:station:wmo:42045:1,2015-02-04T18:30:00Z,26.2168,-96.4998,4.0,6.901144833,297.3447261,8.55,'11111222,11111222,11111222' 